Cloud_Cover
100 100 100 100 100 100 100 100 100 78 68 100 100 93 5 5 4 3 0 0 0 3 0 4 27 5 59 97 78 97 72 34 32 46 100 100 100 100 100 47 100 100 100 80
100 100 100 100 100 100 100 100 100 100 100 89 100 53 64 5 5 0 2 1 0 3 5 7 5 4 57 100 100 95 64 39 100 72 100 100 100 100 100 100 100 100 100 100
100 100 100 99 100 100 100 100 100 100 100 71 34 76 100 98 32 5 0 4 24 1 2 84 26 5 34 80 58 87 43 78 81 100 100 100 100 100 100 100 100 100 100 100
91 99 67 11 54 100 100 100 56 26 94 100 50 61 11 86 88 83 48 5 18 16 27 5 5 61 5 46 98 90 100 100 100 100 100 100 100 100 100 100 100 100 100 100
89 100 100 100 100 100 100 100 100 100 56 89 100 100 100 99 70 69 27 5 2 4 88 4 5 0 93 98 100 100 100 100 100 100 100 100 100 100 100 100 100 100 98 100
100 100 100 100 100 100 100 100 100 100 100 100 100 100 100 76 99 100 98 100 28 100 38 91 83 100 97 100 100 100 100 100 100 100 100 100 100 100 100 100 71 100 100 100
100 100 100 100 100 100 100 100 100 100 100 100 100 100 100 100 100 100 100 15 5 5 7 100 58 99 100 100 100 100 100 100 100 100 100 100 100 88 74 100 100 100 100 100
100 100 100 100 100 100 100 100 100 100 100 100 100 100 100 100 100 100 35 37 66 64 100 100 100 100 100 100 100 100 100 100 100 100 100 100 100 100 77 100 100 100 100 100
100 51 98 100 98 80 97 100 100 100 100 100 99 100 100 100 100 100 98 100 100 100 100 100 100 100 100 100 100 100 100 100 100 100 100 100 100 100 100 100 100 100 100 100
100 100 83 100 98 100 100 100 100 100 100 100 100 99 100 100 100 100 100 100 100 100 100 100 100 100 100 100 100 100 100 100 100 100 100 100 100 100 100 100 100 100 100 100
100 100 100 100 100 100 100 100 100 100 100 100 100 100 100 100 100 100 100 100 100 100 100 100 100 100 100 100 100 100 100 100 100 100 100 100 100 100 100 100 100 100 100 32
100 100 100 100 100 100 100 100 100 100 100 100 100 100 100 100 100 100 100 100 100 100 100 100 100 100 100 100 100 100 100 100 100 100 100 100 100 100 100 100 100 74 6 39
100 100 100 100 100 100 100 100 100 100 100 100 100 100 100 100 100 100 100 100 100 100 100 100 100 100 100 99 100 100 100 100 100 100 100 100 100 100 100 78 5 5 5 73
100 100 100 100 100 100 100 100 100 100 100 100 100 100 100 100 100 100 100 100 100 100 100 100 100 100 71 100 100 100 100 100 100 100 98 86 100 98 5 5 5 5 10 73
100 100 100 100 100 100 100 100 100 100 100 100 100 100 100 100 98 100 100 100 100 88 90 91 100 100 100 100 100 100 100 100 100 100 100 100 72 53 5 5 5 5 56 72
100 100 100 100 100 100 100 100 100 100 100 100 100 100 100 100 100 100 100 100 100 100 100 100 100 100 100 100 100 100 100 100 100 100 100 100 76 9 21 7 5 31 99 86
100 100 100 100 100 100 100 100 100 100 100 100 100 100 96 96 89 93 100 100 100 100 100 100 100 100 100 100 100 86 100 100 100 100 100 100 92 8 57 84 14 67 84 84
100 100 100 100 100 100 100 100 100 100 100 100 100 100 98 98 100 100 100 100 99 100 93 73 99 100 100 100 100 100 100 100 100 100 100 100 100 16 99 100 74 79 56 51
100 100 100 100 100 100 100 100 100 100 100 100 100 100 100 100 100 100 100 100 100 92 100 99 100 100 100 100 100 100 100 100 100 100 100 100 100 88 17 10 7 5 5 71
100 100 100 100 100 100 100 100 100 100 100 100 99 100 100 100 100 100 88 83 98 100 88 96 100 100 100 100 100 100 100 100 100 100 100 100 100 75 5 5 5 5 5 24
100 100 100 100 100 100 100 99 98 96 100 96 100 92 100 98 100 100 100 98 100 100 100 100 99 100 100 100 100 100 100 100 100 100 100 100 76 63 5 5 5 5 5 11
100 100 100 100 100 100 100 99 98 100 97 98 100 100 100 100 100 100 100 100 100 100 78 85 59 70 100 100 100 100 100 100 100 100 100 100 79 6 5 5 5 5 5 5
100 100 97 98 46 53 75 81 100 100 100 88 97 100 100 100 100 100 100 89 96 87 99 94 66 99 100 99 100 100 100 100 100 100 100 100 55 5 5 5 5 5 5 5
100 99 74 100 64 100 100 100 84 87 80 74 88 99 100 100 100 100 88 65 78 95 100 99 97 99 100 100 100 100 100 100 100 100 100 100 9 5 5 5 5 5 5 5
100 100 100 100 100 91 100 93 57 76 63 99 93 94 88 95 100 88 87 96 80 100 96 99 100 100 100 100 100 100 100 100 100 100 100 100 41 5 45 28 5 5 5 13
100 100 100 100 97 87 64 100 100 93 99 94 54 88 73 100 100 100 100 100 100 100 100 98 100 100 100 100 100 100 100 100 100 100 100 100 14 5 33 35 28 5 5 5
100 100 100 99 99 100 100 100 100 100 96 100 100 93 97 100 100 100 100 100 100 100 100 96 100 100 100 100 100 100 100 100 100 100 100 100 61 31 5 63 89 68 6 65